International Skating Union - Official Site

ISU World Cup Nagano
November 18-20, 2016

Draw | Lap Times | Index | World Cup

Referee: Trevis  BOYD  (CAN)
Starter: Yoshihiro  KITAZAWA  (JPN)
StartTime: EndTime: Air Temp: Ice Temp: Humidity:
16:35 17:55 15.7℃ -7.2℃ 45%
Result 5000m Men Division A
Rankings as of Nov 25 2016 5:01PM
Rank: No.: Name: Nation: Time: Behind: Points:
1 92 Sven  Kramer NED NED 6:15.17200m - 18.45 - (18.4)
600m - 47.53 - (29.0)
1000m - 1:17.84 - (30.3)
1400m - 1:48.07 - (30.2)
1800m - 2:17.93 - (29.8)
2200m - 2:47.77 - (29.8)
2600m - 3:17.60 - (29.8)
3000m - 3:47.69 - (30.0)
3400m - 4:17.23 - (29.5)
3800m - 4:46.75 - (29.5)
4200m - 5:15.71 - (28.9)
4600m - 5:45.28 - (29.5)
5000m - 6:15.17 - (29.8)
100
2 87 Jorrit  Bergsma NED NED 6:15.70200m - 18.97 - (18.9)
600m - 48.27 - (29.3)
1000m - 1:18.12 - (29.8)
1400m - 1:48.03 - (29.9)
1800m - 2:17.89 - (29.8)
2200m - 2:47.65 - (29.7)
2600m - 3:17.59 - (29.9)
3000m - 3:47.39 - (29.8)
3400m - 4:17.21 - (29.8)
3800m - 4:46.69 - (29.4)
4200m - 5:16.20 - (29.5)
4600m - 5:45.72 - (29.5)
5000m - 6:15.70 - (29.9)
0.53 80
3 89 Douwe  de Vries NED NED 6:17.65200m - 19.10 - (19.1)
600m - 48.47 - (29.3)
1000m - 1:18.06 - (29.5)
1400m - 1:47.78 - (29.7)
1800m - 2:17.66 - (29.8)
2200m - 2:47.65 - (29.9)
2600m - 3:17.59 - (29.9)
3000m - 3:47.51 - (29.9)
3400m - 4:17.55 - (30.0)
3800m - 4:47.64 - (30.0)
4200m - 5:17.54 - (29.9)
4600m - 5:47.39 - (29.8)
5000m - 6:17.65 - (30.2)
2.48 70
4 91 Erik Jan  Kooiman NED NED 6:18.58200m - 19.72 - (19.7)
600m - 49.32 - (29.6)
1000m - 1:18.61 - (29.2)
1400m - 1:48.38 - (29.7)
1800m - 2:18.15 - (29.7)
2200m - 2:48.04 - (29.8)
2600m - 3:17.83 - (29.7)
3000m - 3:47.78 - (29.9)
3400m - 4:17.90 - (30.1)
3800m - 4:47.93 - (30.0)
4200m - 5:17.84 - (29.9)
4600m - 5:48.13 - (30.2)
5000m - 6:18.58 - (30.4)
3.41 60
5 109 Peter  Michael NZL NZL 6:18.64200m - 19.05 - (19.0)
600m - 48.73 - (29.6)
1000m - 1:18.41 - (29.6)
1400m - 1:48.48 - (30.0)
1800m - 2:18.39 - (29.9)
2200m - 2:48.51 - (30.1)
2600m - 3:18.74 - (30.2)
3000m - 3:48.89 - (30.1)
3400m - 4:18.80 - (29.9)
3800m - 4:49.09 - (30.2)
4200m - 5:19.08 - (29.9)
4600m - 5:48.94 - (29.8)
5000m - 6:18.64 - (29.7)
3.47 50
6 5 Bart  Swings BEL BEL 6:21.21200m - 18.75 - (18.7)
600m - 47.82 - (29.0)
1000m - 1:17.15 - (29.3)
1400m - 1:46.82 - (29.6)
1800m - 2:16.62 - (29.8)
2200m - 2:46.56 - (29.9)
2600m - 3:16.31 - (29.7)
3000m - 3:46.23 - (29.9)
3400m - 4:16.30 - (30.0)
3800m - 4:46.91 - (30.6)
4200m - 5:18.05 - (31.1)
4600m - 5:49.26 - (31.2)
5000m - 6:21.21 - (31.9)
6.04 45
7 97 Patrick  Roest NED NED 6:21.55200m - 18.89 - (18.8)
600m - 49.43 - (30.5)
1000m - 1:20.02 - (30.5)
1400m - 1:50.45 - (30.4)
1800m - 2:20.56 - (30.1)
2200m - 2:50.63 - (30.0)
2600m - 3:20.57 - (29.9)
3000m - 3:50.48 - (29.9)
3400m - 4:20.51 - (30.0)
3800m - 4:50.63 - (30.1)
4200m - 5:20.86 - (30.2)
4600m - 5:51.20 - (30.3)
5000m - 6:21.55 - (30.3)
6.38 40
8 45 Moritz  Geisreiter GER GER 6:22.49200m - 19.16 - (19.1)
600m - 48.41 - (29.2)
1000m - 1:18.18 - (29.7)
1400m - 1:48.02 - (29.8)
1800m - 2:18.24 - (30.2)
2200m - 2:48.55 - (30.3)
2600m - 3:18.79 - (30.2)
3000m - 3:49.22 - (30.4)
3400m - 4:19.88 - (30.6)
3800m - 4:50.40 - (30.5)
4200m - 5:20.98 - (30.5)
4600m - 5:51.87 - (30.8)
5000m - 6:22.49 - (30.6)
7.32 35
9 42 Alexis  Contin FRA FRA 6:23.74200m - 18.97 - (18.9)
600m - 48.15 - (29.1)
1000m - 1:18.13 - (29.9)
1400m - 1:48.23 - (30.1)
1800m - 2:18.35 - (30.1)
2200m - 2:48.49 - (30.1)
2600m - 3:18.73 - (30.2)
3000m - 3:49.08 - (30.3)
3400m - 4:19.44 - (30.3)
3800m - 4:49.97 - (30.5)
4200m - 5:20.90 - (30.9)
4600m - 5:52.11 - (31.2)
5000m - 6:23.74 - (31.6)
8.57 30
10 53 Andrea  Giovannini ITA ITA 6:24.15200m - 18.74 - (18.7)
600m - 47.57 - (28.8)
1000m - 1:17.50 - (29.9)
1400m - 1:47.58 - (30.0)
1800m - 2:17.41 - (29.8)
2200m - 2:47.23 - (29.8)
2600m - 3:17.73 - (30.5)
3000m - 3:48.32 - (30.5)
3400m - 4:19.07 - (30.7)
3800m - 4:49.95 - (30.8)
4200m - 5:21.11 - (31.1)
4600m - 5:52.51 - (31.4)
5000m - 6:24.15 - (31.6)
8.98 25
11 43 Patrick  Beckert GER GER 6:24.98200m - 19.37 - (19.3)
600m - 48.73 - (29.3)
1000m - 1:18.78 - (30.0)
1400m - 1:49.03 - (30.2)
1800m - 2:19.53 - (30.5)
2200m - 2:50.32 - (30.7)
2600m - 3:21.13 - (30.8)
3000m - 3:52.00 - (30.8)
3400m - 4:22.94 - (30.9)
3800m - 4:53.44 - (30.5)
4200m - 5:23.92 - (30.4)
4600m - 5:54.24 - (30.3)
5000m - 6:24.98 - (30.7)
9.81 21
12 8 Ted-Jan  Bloemen CAN CAN 6:25.64200m - 19.00 - (19.0)
600m - 49.14 - (30.1)
1000m - 1:19.47 - (30.3)
1400m - 1:49.64 - (30.1)
1800m - 2:19.98 - (30.3)
2200m - 2:50.25 - (30.2)
2600m - 3:20.71 - (30.4)
3000m - 3:51.01 - (30.3)
3400m - 4:21.49 - (30.4)
3800m - 4:52.46 - (30.9)
4200m - 5:23.43 - (30.9)
4600m - 5:54.51 - (31.0)
5000m - 6:25.64 - (31.1)
10.47 18
13 57 Nicola  Tumolero ITA ITA 6:27.22200m - 19.28 - (19.2)
600m - 49.40 - (30.1)
1000m - 1:19.93 - (30.5)
1400m - 1:50.15 - (30.2)
1800m - 2:20.37 - (30.2)
2200m - 2:50.64 - (30.2)
2600m - 3:20.95 - (30.3)
3000m - 3:51.29 - (30.3)
3400m - 4:21.79 - (30.5)
3800m - 4:52.60 - (30.8)
4200m - 5:23.73 - (31.1)
4600m - 5:55.02 - (31.2)
5000m - 6:27.22 - (32.2)
12.05 16
14 72 Shane  Williamson JPN JPN 6:30.00200m - 18.21 - (18.2)
600m - 48.03 - (29.8)
1000m - 1:17.93 - (29.9)
1400m - 1:48.15 - (30.2)
1800m - 2:18.50 - (30.3)
2200m - 2:49.28 - (30.7)
2600m - 3:20.36 - (31.0)
3000m - 3:51.48 - (31.1)
3400m - 4:22.76 - (31.2)
3800m - 4:54.27 - (31.5)
4200m - 5:25.48 - (31.2)
4600m - 5:57.43 - (31.9)
5000m - 6:30.00 - (32.5)
14.83 14
15 52 Davide  Ghiotto ITA ITA 6:39.74200m - 19.11 - (19.1)
600m - 47.61 - (28.5)
1000m - 1:17.08 - (29.4)
1400m - 1:47.34 - (30.2)
1800m - 2:17.66 - (30.3)
2200m - 2:48.50 - (30.8)
2600m - 3:19.64 - (31.1)
3000m - 3:51.26 - (31.6)
3400m - 4:23.55 - (32.2)
3800m - 4:56.51 - (32.9)
4200m - 5:30.46 - (33.9)
4600m - 6:04.93 - (34.4)
5000m - 6:39.74 - (34.8)
24.57 12
16 131 Nils  van der Poel SWE SWE DQ200m - 19.53 - (19.5)
600m - 49.49 - (29.9)
1000m - 1:19.76 - (30.2)
1400m - 1:50.07 - (30.3)
1800m - 2:20.44 - (30.3)
2200m - 2:50.99 - (30.5)
2600m - 3:21.37 - (30.3)
3000m - 3:51.93 - (30.5)
3400m - 4:22.39 - (30.4)
3800m - 4:53.18 - (30.7)
4200m - 5:23.78 - (30.6)
4600m - 5:54.19 - (30.4)
5000m - 6:24.64 - (30.4)
0